TimeMDT,TemperatureF,Dew PointF,Humidity,Sea Level PressureIn,VisibilityMPH,Wind Direction,Wind SpeedMPH,Gust SpeedMPH,PrecipitationIn,Events,Conditions,WindDirDegrees,DateUTC
12:52 AM,46.4,26.6,46,30.10,10.0,NW,5.8,-,N/A,,Clear,320,2012-09-20 06:52:00
1:52 AM,46.0,27.0,47,30.08,10.0,WNW,3.5,-,N/A,,Clear,290,2012-09-20 07:52:00
2:52 AM,46.0,28.0,50,30.07,10.0,NW,6.9,-,N/A,,Clear,320,2012-09-20 08:52:00
3:52 AM,45.0,28.9,53,30.05,10.0,WNW,5.8,-,N/A,,Clear,300,2012-09-20 09:52:00
4:52 AM,45.0,27.0,49,30.05,10.0,NW,4.6,-,N/A,,Clear,310,2012-09-20 10:52:00
5:52 AM,46.9,28.0,48,30.05,10.0,WNW,4.6,-,N/A,,Clear,300,2012-09-20 11:52:00
6:52 AM,44.6,28.4,53,30.07,10.0,NW,3.5,-,N/A,,Clear,320,2012-09-20 12:52:00
7:52 AM,54.0,28.0,37,30.06,10.0,West,4.6,-,N/A,,Clear,270,2012-09-20 13:52:00
8:52 AM,60.1,28.9,31,30.05,10.0,Variable,3.5,-,N/A,,Clear,0,2012-09-20 14:52:00
9:52 AM,64.0,27.0,25,30.05,10.0,NE,6.9,-,N/A,,Clear,50,2012-09-20 15:52:00
10:52 AM,68.0,28.0,22,30.04,10.0,South,5.8,-,N/A,,Clear,170,2012-09-20 16:52:00
11:52 AM,71.1,28.0,20,30.02,10.0,Variable,4.6,-,N/A,,Clear,0,2012-09-20 17:52:00
12:52 PM,73.9,28.9,19,30.00,10.0,NNW,6.9,-,N/A,,Clear,340,2012-09-20 18:52:00
1:52 PM,77.0,30.0,18,29.98,10.0,North,11.5,20.7,N/A,,Clear,360,2012-09-20 19:52:00
2:52 PM,77.0,28.9,17,29.96,10.0,North,19.6,25.3,N/A,,Clear,350,2012-09-20 20:52:00
3:52 PM,77.0,30.0,18,29.95,10.0,NNW,21.9,32.2,N/A,,Clear,340,2012-09-20 21:52:00
4:52 PM,75.0,30.9,20,29.95,10.0,North,26.5,33.4,N/A,,Clear,350,2012-09-20 22:52:00
5:52 PM,72.0,30.9,22,29.95,10.0,North,18.4,-,N/A,,Clear,350,2012-09-20 23:52:00
6:52 PM,68.0,30.9,25,29.99,10.0,North,16.1,-,N/A,,Clear,350,2012-09-21 00:52:00
7:52 PM,62.1,30.9,31,29.99,10.0,North,10.4,-,N/A,,Clear,350,2012-09-21 01:52:00
8:52 PM,62.1,32.0,32,29.99,10.0,NNW,11.5,-,N/A,,Clear,340,2012-09-21 02:52:00
9:52 PM,57.9,32.0,37,30.00,10.0,NNW,9.2,-,N/A,,Clear,340,2012-09-21 03:52:00
10:52 PM,53.1,30.9,43,30.01,10.0,North,11.5,-,N/A,,Clear,350,2012-09-21 04:52:00
11:52 PM,54.0,32.0,43,30.01,10.0,North,10.4,-,N/A,,Clear,360,2012-09-21 05:52:00